Weather History for Glendive, MT

Change the Weather History Date:

Friday, June 21, 2013

  Actual Average Record
Temperature  
Mean Temperature 63 °F -  
Max Temperature 73 °F 73 °F 93 °F (1999)
Min Temperature 53 °F 49 °F 42 °F (2004)
Degree Days  
Heating Degree Days 2    
Growing Degree Days 13 (Base 50)    
Moisture  
Dew Point 50 °F    
Average Humidity 64    
Maximum Humidity 88    
Minimum Humidity 41    
Precipitation  
Precipitation 0.03 in - - ()
Sea Level Pressure  
Sea Level Pressure 29.99 in    
Wind  
Wind Speed 9 mph (NNE)    
Max Wind Speed 21 mph    
Max Gust Speed 29 mph    
Visibility 10 miles    
Events      
Averages and records for this station are not official NWS values.
T = Trace of Precipitation, MM = Missing Value Source: NWS Daily Summary

Daily Weather History Graph

Daily Weather History Graph

Search for Another Location

Airport:

Trip Planner

Search our weather history database for the weather conditions in past years. The results will help you decide how hot, cold, wet, or windy it might be!

Date:

Astronomy

Jun. 21, 2013 Rise Set
Actual Time 5:03 AM MDT 8:58 PM MDT
Civil Twilight 4:23 AM MDT 9:38 PM MDT
Nautical Twilight 3:28 AM MDT 10:33 PM MDT
Astronomical Twilight 2:04 AM MDT 11:57 PM MDT
Moon 7:07 PM MDT (6/21) 3:27 AM MDT (6/21)
Length of Visible Light 17h 15m
Length of Day
15h 55m
Waxing Gibbous, 95% of the Moon is Illuminated
Jun 21
Waxing Gibbous
Jun 23
Full
Jun 29
Last Quarter
Jul 8
New
Jul 15
First Quarter

Hourly Weather History & Observations

Time (MDT) Temp. Dew Point Humidity Pressure Visibility Wind Dir Wind Speed Gust Speed Precip Events Conditions
12:15 AM 55.4 °F 42.8 °F 63% 29.95 in 10.0 mi North 6.9 mph - N/A   Clear
12:35 AM 55.4 °F 42.8 °F 63% 29.95 in 10.0 mi NW 6.9 mph - N/A   Clear
12:55 AM 57.2 °F 42.8 °F 59% 29.96 in 10.0 mi Calm Calm - N/A   Clear
1:16 AM 55.4 °F 42.8 °F 63% 29.96 in 10.0 mi NNE 4.6 mph - N/A   Clear
1:35 AM 55.4 °F 44.6 °F 67% 29.97 in 10.0 mi NNW 5.8 mph - N/A   Clear
1:55 AM 53.6 °F 44.6 °F 72% 29.97 in 10.0 mi North 8.1 mph - N/A   Clear
2:15 AM 53.6 °F 46.4 °F 77% 29.98 in 10.0 mi NW 5.8 mph - N/A   Clear
2:35 AM 53.6 °F 44.6 °F 72% 29.98 in 10.0 mi NW 8.1 mph - N/A   Partly Cloudy
2:55 AM 57.2 °F 46.4 °F 67% 29.98 in 10.0 mi NNW 9.2 mph - N/A   Partly Cloudy
3:15 AM 57.2 °F 44.6 °F 63% 29.97 in 10.0 mi NNE 9.2 mph - N/A   Mostly Cloudy
3:35 AM 57.2 °F 44.6 °F 63% 29.99 in 10.0 mi NNE 6.9 mph - N/A   Overcast
3:55 AM 57.2 °F 44.6 °F 63% 30.00 in 10.0 mi Calm Calm - N/A   Mostly Cloudy
4:35 AM 57.2 °F 44.6 °F 63% 30.00 in 10.0 mi North 5.8 mph - N/A   Mostly Cloudy
4:55 AM 57.2 °F 44.6 °F 63% 29.99 in 10.0 mi NNE 6.9 mph - N/A   Scattered Clouds
5:15 AM 55.4 °F 46.4 °F 72% 29.99 in 10.0 mi North 9.2 mph - N/A   Mostly Cloudy
5:35 AM 57.2 °F 46.4 °F 67% 30.03 in 10.0 mi Calm Calm - N/A   Mostly Cloudy
5:55 AM 55.4 °F 48.2 °F 77% 30.02 in 10.0 mi North 8.1 mph - N/A   Partly Cloudy
6:15 AM 55.4 °F 48.2 °F 77% 30.01 in 10.0 mi NNW 11.5 mph - N/A   Clear
6:35 AM 57.2 °F 48.2 °F 72% 30.02 in 10.0 mi NNE 8.1 mph - N/A   Mostly Cloudy
6:55 AM 55.4 °F 48.2 °F 77% 30.06 in 10.0 mi Calm Calm - N/A   Overcast
7:35 AM 55.4 °F 51.8 °F 88% 30.07 in 10.0 mi SE 6.9 mph - 0.03 in   Mostly Cloudy
7:55 AM 55.4 °F 51.8 °F 88% 30.06 in 10.0 mi North 4.6 mph - 0.03 in   Mostly Cloudy
8:16 AM 55.4 °F 51.8 °F 88% 30.04 in 10.0 mi ENE 9.2 mph - N/A   Mostly Cloudy
8:35 AM 55.4 °F 51.8 °F 88% 30.03 in 10.0 mi ENE 4.6 mph - N/A   Partly Cloudy
8:55 AM 59.0 °F 53.6 °F 82% 30.03 in 10.0 mi NNE 9.2 mph - N/A   Clear
9:35 AM 62.6 °F 51.8 °F 68% 30.00 in 10.0 mi NE 10.4 mph - N/A   Clear
9:55 AM 64.4 °F 50.0 °F 59% 30.01 in 10.0 mi NE 12.7 mph 16.1 mph N/A   Clear
10:15 AM 66.2 °F 50.0 °F 56% 29.99 in 10.0 mi NE 12.7 mph - N/A   Clear
10:35 AM 64.4 °F 48.2 °F 56% 29.99 in 10.0 mi NE 12.7 mph - N/A   Partly Cloudy
10:55 AM 64.4 °F 48.2 °F 56% 29.99 in 10.0 mi NNE 12.7 mph - N/A   Scattered Clouds
11:15 AM 66.2 °F 50.0 °F 56% 29.98 in 10.0 mi North 12.7 mph - N/A   Partly Cloudy
11:35 AM 68.0 °F 50.0 °F 52% 29.97 in 10.0 mi NNE 13.8 mph - N/A   Clear
11:55 AM 69.8 °F 50.0 °F 49% 29.97 in 10.0 mi North 11.5 mph 18.4 mph N/A   Clear
12:15 PM 71.6 °F 51.8 °F 50% 29.97 in 10.0 mi NNE 13.8 mph - N/A   Clear
12:35 PM 71.6 °F 48.2 °F 43% 29.97 in 10.0 mi NNE 12.7 mph 18.4 mph N/A   Clear
12:55 PM 71.6 °F 50.0 °F 46% 29.97 in 10.0 mi NNE 9.2 mph - N/A   Clear
1:15 PM 73.4 °F 51.8 °F 47% 29.97 in 10.0 mi NE 12.7 mph 17.3 mph N/A   Clear
1:35 PM 73.4 °F 48.2 °F 41% 29.97 in 10.0 mi NE 13.8 mph - N/A   Clear
1:55 PM 73.4 °F 50.0 °F 44% 29.97 in 10.0 mi NE 15.0 mph 21.9 mph N/A   Clear
2:15 PM 73.4 °F 51.8 °F 47% 29.97 in 10.0 mi NE 18.4 mph 21.9 mph N/A   Clear
2:35 PM 73.4 °F 51.8 °F 47% 29.97 in 10.0 mi ENE 16.1 mph 24.2 mph N/A   Clear
2:55 PM 73.4 °F 51.8 °F 47% 29.97 in 10.0 mi ENE 15.0 mph 23.0 mph N/A   Clear
3:35 PM 73.4 °F 51.8 °F 47% 29.97 in 10.0 mi NE 16.1 mph 23.0 mph N/A   Clear
3:55 PM 73.4 °F 51.8 °F 47% 29.97 in 10.0 mi NNE 16.1 mph 23.0 mph N/A   Clear
4:15 PM 73.4 °F 51.8 °F 47% 29.97 in 10.0 mi NE 16.1 mph 24.2 mph N/A   Scattered Clouds
4:35 PM 71.6 °F 51.8 °F 50% 29.97 in 10.0 mi ENE 17.3 mph - N/A   Mostly Cloudy
4:55 PM 71.6 °F 51.8 °F 50% 29.97 in 10.0 mi ENE 16.1 mph - N/A   Overcast
5:15 PM 71.6 °F 53.6 °F 53% 29.97 in 10.0 mi ENE 13.8 mph 19.6 mph N/A   Overcast
5:35 PM 71.6 °F 53.6 °F 53% 29.96 in 10.0 mi ENE 15.0 mph 19.6 mph N/A   Mostly Cloudy
5:55 PM 73.4 °F 53.6 °F 50% 29.96 in 10.0 mi ENE 16.1 mph - N/A   Mostly Cloudy
6:16 PM 71.6 °F 53.6 °F 53% 29.94 in 10.0 mi NE 16.1 mph - N/A   Mostly Cloudy
6:35 PM 71.6 °F 53.6 °F 53% 29.94 in 10.0 mi ENE 15.0 mph - N/A   Partly Cloudy
6:55 PM 71.6 °F 53.6 °F 53% 29.94 in 10.0 mi East 12.7 mph - N/A   Mostly Cloudy
7:15 PM 69.8 °F 53.6 °F 56% 29.95 in 10.0 mi East 8.1 mph - N/A   Overcast
7:35 PM 69.8 °F 53.6 °F 56% 29.96 in 10.0 mi ESE 11.5 mph - N/A   Overcast
7:55 PM 69.8 °F 53.6 °F 56% 29.96 in 10.0 mi South 8.1 mph - N/A   Overcast
8:15 PM 66.2 °F 55.4 °F 68% 29.97 in 10.0 mi West 11.5 mph 16.1 mph N/A   Overcast
8:35 PM 60.8 °F 53.6 °F 77% 29.98 in 10.0 mi NNW 20.7 mph 28.8 mph N/A   Overcast
8:55 PM 60.8 °F 53.6 °F 77% 29.99 in 10.0 mi NW 16.1 mph 20.7 mph N/A   Mostly Cloudy
9:15 PM 59.0 °F 53.6 °F 82% 29.99 in 10.0 mi NNW 17.3 mph - N/A   Scattered Clouds
9:35 PM 59.0 °F 53.6 °F 82% 30.01 in 10.0 mi NNW 12.7 mph - N/A   Mostly Cloudy
9:55 PM 57.2 °F 53.6 °F 88% 30.01 in 10.0 mi NNW 12.7 mph - N/A   Partly Cloudy
10:15 PM 57.2 °F 53.6 °F 88% 30.01 in 10.0 mi North 8.1 mph - N/A   Clear
10:35 PM 57.2 °F 53.6 °F 88% 30.01 in 10.0 mi North 9.2 mph - N/A   Clear
10:55 PM 57.2 °F 53.6 °F 88% 30.01 in 10.0 mi NNW 8.1 mph - N/A   Clear
11:15 PM 55.4 °F 51.8 °F 88% 30.01 in 10.0 mi NNW 8.1 mph - N/A   Clear
11:35 PM 57.2 °F 53.6 °F 88% 30.00 in 10.0 mi North 6.9 mph - N/A   Clear
11:55 PM 55.4 °F 51.8 °F 88% 29.98 in 10.0 mi NNW 5.8 mph - N/A   Clear